TimeAKDT,TemperatureF,Dew PointF,Humidity,Sea Level PressureIn,VisibilityMPH,Wind Direction,Wind SpeedMPH,Gust SpeedMPH,PrecipitationIn,Events,Conditions,WindDirDegrees,DateUTC
12:53 AM,52.0,50.0,93,30.17,10.0,East,6.9,-,N/A,,Clear,100,2013-09-09 08:53:00
1:15 AM,52.0,50.0,93,30.17,10.0,Calm,Calm,-,N/A,,Mostly Cloudy,0,2013-09-09 09:15:00
1:53 AM,52.0,50.0,93,30.17,9.0,Calm,Calm,-,N/A,,Scattered Clouds,0,2013-09-09 09:53:00
2:03 AM,52.0,50.0,93,30.16,9.0,East,4.6,-,N/A,,Mostly Cloudy,100,2013-09-09 10:03:00
2:53 AM,52.0,50.0,93,30.16,10.0,Calm,Calm,-,N/A,,Overcast,0,2013-09-09 10:53:00
3:53 AM,52.0,50.0,93,30.15,10.0,Calm,Calm,-,N/A,,Mostly Cloudy,0,2013-09-09 11:53:00
4:02 AM,52.0,50.0,93,30.15,10.0,Calm,Calm,-,N/A,,Scattered Clouds,0,2013-09-09 12:02:00
4:53 AM,51.1,48.9,92,30.15,8.0,Calm,Calm,-,N/A,,Clear,0,2013-09-09 12:53:00
5:53 AM,51.1,48.9,92,30.14,7.0,ESE,5.8,-,N/A,,Scattered Clouds,110,2013-09-09 13:53:00
6:53 AM,52.0,48.9,89,30.14,7.0,Calm,Calm,-,N/A,,Overcast,0,2013-09-09 14:53:00
7:53 AM,53.1,50.0,89,30.15,8.0,East,3.5,-,N/A,,Overcast,100,2013-09-09 15:53:00
8:53 AM,54.0,50.0,86,30.15,8.0,SSE,4.6,-,N/A,,Overcast,150,2013-09-09 16:53:00
9:53 AM,55.9,51.1,84,30.15,10.0,SE,3.5,-,N/A,,Overcast,140,2013-09-09 17:53:00
10:53 AM,57.0,50.0,77,30.14,10.0,West,3.5,-,N/A,,Overcast,260,2013-09-09 18:53:00
11:53 AM,57.9,52.0,81,30.14,10.0,NW,4.6,-,N/A,,Mostly Cloudy,320,2013-09-09 19:53:00
12:53 PM,59.0,51.1,75,30.16,9.0,Calm,Calm,-,N/A,,Mostly Cloudy,0,2013-09-09 20:53:00
1:53 PM,60.1,52.0,75,30.17,8.0,West,5.8,-,N/A,,Mostly Cloudy,270,2013-09-09 21:53:00
2:53 PM,60.1,52.0,75,30.16,9.0,North,4.6,-,N/A,,Overcast,350,2013-09-09 22:53:00
3:53 PM,60.1,51.1,72,30.15,10.0,Calm,Calm,-,N/A,,Mostly Cloudy,0,2013-09-09 23:53:00
4:53 PM,60.1,51.1,72,30.14,9.0,West,3.5,-,N/A,,Mostly Cloudy,260,2013-09-10 00:53:00
5:53 PM,59.0,50.0,72,30.13,10.0,Calm,Calm,-,N/A,,Overcast,0,2013-09-10 01:53:00
6:53 PM,59.0,51.1,75,30.13,10.0,Calm,Calm,-,N/A,,Scattered Clouds,0,2013-09-10 02:53:00
7:53 PM,57.9,51.1,78,30.13,10.0,East,3.5,-,N/A,,Overcast,90,2013-09-10 03:53:00
8:53 PM,55.0,50.0,83,30.12,10.0,ENE,3.5,-,N/A,,Overcast,70,2013-09-10 04:53:00
9:53 PM,53.1,50.0,89,30.12,10.0,East,5.8,-,N/A,,Clear,90,2013-09-10 05:53:00
10:53 PM,54.0,50.0,86,30.12,10.0,East,4.6,-,N/A,,Overcast,80,2013-09-10 06:53:00
11:53 PM,54.0,50.0,86,30.10,10.0,Calm,Calm,-,N/A,,Mostly Cloudy,0,2013-09-10 07:53:00